Weather History for Mount Holly, NJ

Change the Weather History Date:

Wednesday, June 25, 2014

  Actual Average (KWRI) Record (KWRI)
Temperature  
Mean Temperature 76 °F -  
Max Temperature 87 °F 82 °F 95 °F (1997)
Min Temperature 66 °F 62 °F 60 °F (1999)
Cooling Degree Days 12    
Growing Degree Days 26 (Base 50)    
Moisture  
Dew Point 69 °F    
Average Humidity 80    
Maximum Humidity 96    
Minimum Humidity 59    
Precipitation  
Precipitation 0.00 in - - ()
Sea Level Pressure  
Sea Level Pressure 29.95 in    
Wind  
Wind Speed 3 mph (South)    
Max Wind Speed 8 mph    
Max Gust Speed -    
Visibility 10 miles    
Events      
Averages and records for this station are not official NWS values.
T = Trace of Precipitation, MM = Missing Value Source: NWS Daily Summary

Daily Weather History Graph

Daily Weather History Graph

Search for Another Location

Airport:

Trip Planner

Search our weather history database for the weather conditions in past years. The results will help you decide how hot, cold, wet, or windy it might be!

Date:

Astronomy

Jun. 25, 2014 Rise Set
Actual Time 5:31 AM EDT 8:32 PM EDT
Civil Twilight 4:59 AM EDT 9:04 PM EDT
Nautical Twilight 4:17 AM EDT 9:46 PM EDT
Astronomical Twilight 3:28 AM EDT 10:34 PM EDT
Moon 4:21 AM EDT (6/25) 7:02 PM EDT (6/25)
Length of Visible Light 16h 05m
Length of Day
15h 00m
Waning Crescent, 3% of the Moon is Illuminated
Jun 25
Waning Crescent
Jun 27
New
Jul 5
First Quarter
Jul 12
Full
Jul 18
Last Quarter

Hourly Weather History & Observations

Time (EDT) Temp. Heat Index Dew Point Humidity Pressure Visibility Wind Dir Wind Speed Gust Speed Precip Events Conditions
12:54 AM 69.1 °F - 64.9 °F 87% 30.03 in 10.0 mi Variable 3.5 mph - N/A   Clear
1:54 AM 66.9 °F - 64.9 °F 93% 30.02 in 10.0 mi Calm Calm - N/A   Clear
2:54 AM 66.9 °F - 64.9 °F 93% 30.01 in 10.0 mi Calm Calm - N/A   Clear
3:18 AM 66.0 °F - 64.9 °F 96% 30.01 in 10.0 mi Calm Calm - N/A   Scattered Clouds
3:28 AM 66.0 °F - 64.0 °F 93% 30.01 in 9.0 mi Calm Calm - N/A   Mostly Cloudy
3:54 AM 66.9 °F - 64.9 °F 93% 30.01 in 10.0 mi Calm Calm - N/A   Overcast
4:21 AM 66.9 °F - 64.9 °F 93% 30.00 in 10.0 mi Calm Calm - N/A   Overcast
4:36 AM 68.0 °F - 66.0 °F 93% 30.00 in 10.0 mi Calm Calm - N/A   Overcast
4:54 AM 68.0 °F - 66.0 °F 93% 30.00 in 9.0 mi Calm Calm - N/A   Overcast
5:54 AM 69.1 °F - 66.9 °F 93% 30.00 in 8.0 mi North 3.5 mph - N/A   Overcast
6:54 AM 71.1 °F - 68.0 °F 90% 30.00 in 10.0 mi Calm Calm - N/A   Overcast
7:03 AM 71.1 °F - 68.0 °F 90% 30.00 in 10.0 mi Calm Calm - N/A   Overcast
7:54 AM 73.0 °F - 69.1 °F 87% 30.00 in 9.0 mi Calm Calm - N/A   Overcast
8:51 AM 75.2 °F - 71.6 °F 89% 30.00 in 10.0 mi Variable 3.5 mph - N/A   Overcast
8:54 AM 75.0 °F - 71.1 °F 87% 30.00 in 10.0 mi South 4.6 mph - N/A   Overcast
9:54 AM 79.0 °F - 72.0 °F 79% 29.98 in 10.0 mi Calm Calm - N/A   Mostly Cloudy
10:05 AM 80.1 °F 83.6 °F 71.1 °F 74% 29.97 in 10.0 mi Variable 4.6 mph - N/A   Mostly Cloudy
10:49 AM 82.4 °F 87.2 °F 71.6 °F 70% 29.97 in 10.0 mi Variable 5.8 mph - N/A   Scattered Clouds
10:54 AM 82.0 °F 86.3 °F 71.1 °F 69% 29.97 in 10.0 mi Variable 4.6 mph - N/A   Mostly Cloudy
11:07 AM 82.9 °F 87.5 °F 71.1 °F 67% 29.96 in 10.0 mi Variable 6.9 mph - N/A   Scattered Clouds
11:54 AM 84.9 °F 89.4 °F 70.0 °F 61% 29.95 in 10.0 mi Variable 6.9 mph - N/A   Scattered Clouds
12:54 PM 86.0 °F 91.5 °F 71.1 °F 61% 29.93 in 10.0 mi South 6.9 mph - N/A   Scattered Clouds
1:54 PM 84.9 °F 89.4 °F 70.0 °F 61% 29.91 in 10.0 mi Variable 6.9 mph - N/A   Mostly Cloudy
2:54 PM 87.1 °F 92.8 °F 71.1 °F 59% 29.88 in 10.0 mi SW 8.1 mph - 0.00 in   Scattered Clouds
3:54 PM 86.0 °F 92.2 °F 72.0 °F 63% 29.87 in 10.0 mi Variable 6.9 mph - N/A   Partly Cloudy
4:54 PM 82.9 °F 87.0 °F 70.0 °F 65% 29.86 in 10.0 mi South 8.1 mph - N/A   Overcast
5:54 PM 84.0 °F 88.4 °F 70.0 °F 63% 29.84 in 10.0 mi Variable 5.8 mph - N/A   Mostly Cloudy
6:54 PM 82.9 °F 88.0 °F 72.0 °F 69% 29.84 in 10.0 mi South 5.8 mph - N/A   Partly Cloudy
7:54 PM 81.0 °F 85.2 °F 72.0 °F 74% 29.83 in 10.0 mi Variable 3.5 mph - N/A   Partly Cloudy
10:54 PM 75.9 °F - 70.0 °F 82% 29.83 in 10.0 mi Variable 3.5 mph - N/A   Clear
11:54 PM 75.0 °F - 70.0 °F 84% 29.85 in 10.0 mi Variable 3.5 mph - N/A   Clear